Weather in Pozhva

Russia / Perm Krai     59°04′29″N   56°06′30″E
temp.,
°C
wind,
m/s
gust,
m/s
humid.,
%
clouds,
%
prec.,
mm/h
press.,
hPa
HPBL,
m
7 march, sun
sun723:00−16w239793 0.1 100931
02:00−18w239870 0.0 101027
05:00−20wsw229963 0.0 101020
08:00−21wsw119979 0.0 100920
11:00−16sw129189 0.1 1009221
14:00−13s138696 0.1 1008501
17:00−13se129098 0.1 1007296
20:00−16se2297100 0.1 100720
8 march, mon
mon823:00−18s229868 0.1 100720
02:00−18sse239879 0.0 100622
05:00−19se339986 0.1 100563
08:00−18se4896100 0.1 1002233
11:00−15se5894100 0.4 1001419
14:00−12se5890100 0.3 999617
17:00−10ese4793100 0.7 997482
20:00−10e4795100 0.8 997323
9 march, tue
tue923:00−9e2396100 1.9 998143
02:00−12sw489589 0.2 998181
05:00−15sw369792 0.3 999120
08:00−17w239890 0.0 99927
11:00−13wnw129387 0.1 1000205
14:00−10nw2388100 0.1 1002526
17:00−10nnw3489100 0.3 1004452
20:00−15n3795100 0.1 1005162
10 march, wed
wed1023:00−17n3794100 0.1 1008351
02:00−20n4894100 0.1 1009377
05:00−23n4792100 0.1 1010319
08:00−27nnw499397 0.0 1011257
11:00−26nnw479181 0.0 1012342
14:00−20nnw468314 0.0 1011505
17:00−19nw46847 0.0 1011420
20:00−23wnw33948 0.0 101127
11 march, thu
thu1123:00−22w359636 0.0 1012115
02:00−23wsw369879 0.0 101097
05:00−19w499689 0.1 1009439
08:00−18w41095100 0.3 1008498
11:00−14wnw51088100 0.4 1009762
14:00−11wnw5784100 0.1 1009899
17:00−10w5988100 0.3 1009831
20:00−11wnw41189100 0.1 1010584